星链-34225 (STARLINK-34225)

导读

STARLINK-34225是美国SpaceX公司星链(Starlink)星座的卫星,于2025年6月17日发射入轨。星链项目依托近地轨道部署数千颗小型卫星,构建全球覆盖的高速低延迟宽带互联网,为偏远山区、海洋等传统通信盲区提供稳定网络接入。 作为星链组网的最新卫星之一,STARLINK-34225将补充星座容量,提升全球网络覆盖密度与服务稳定性,支撑星链面向个人、企业及应急场景的通信服务,进一步巩固美国在低轨卫星互联网领域的部署优势。

Basic Information
目录编号:
64414
目录名称:
STARLINK-34225
国际标识:
2025-129C
轨道中心:
EARTH
卫星名称:
星链-34225
卫星全名:
星链-34225 (STARLINK-34225)
卫星状态:
在轨 (已飞行362 天)
发射日期:
2025-06-17 UTC
国别 :
美国 (US)
星等 :
--
Orbit Information
数据来源 国际轨道数据 AOE轨道数据
星历时间 2026-06-13T19:59:15+0800
15小时前
查看轨道信息
2026-06-13T02:00:00+0800
1天前
查看轨道信息
半长轴 6950.178km 6950.133km
偏心率 0.0003737 0.000375
轨道倾角 70.000° 69.998°
近地点辐角 269.063° 273.745°
升交点赤经 193.081° 194.969°
平近点角 91.010° 4.865°
近地点 569.443km 569.389km
远地点 574.639km 574.603km
周期 96.107分钟 96.106分钟
每日圈数 14.983349 14.983496
Detailed Information
固有亮度:
5
最大亮度:
2.5
卫星平台:
Starlink V1.0
覆盖范围:
全球
运营商:
太空探索技术公司
运营商所在国:
美国
制造商(研发单位):
太空探索技术公司
制造商所在国:
美国
使用方式:
暂无
Satellite Introduction
Starlink 计划是 SpaceX 推出的全球卫星互联网项目,通过发射低轨道卫星,为全球尤其是偏远地区提供高速、低延迟的互联网服务。自 2019 年起,Starlink 已部署数千颗卫星,旨在缩小全球数字鸿沟,推动互联网普及。该项目还为军事、航空等行业提供通信支持,带来广泛经济效益。
2D Orbit Map
3D Orbit Map
Orbit Altitude Analysis Chart
Orbit Inclination Analysis Chart
Orbit Comprehensive Analysis Chart
View Comprehensive Chart